Regional Weather Roundup
Issued by NWS Charleston, SC

Current Version | Previous Version | Graphics & Text | Print | Product List | Glossary On
Versions: 1 2 3 4 5 6 7 8 9 10 11 12 13 14 15 16 17 18 19 20 21 22 23 24 25 26 27 28 29 30 31 32 33 34 35 36 37 38 39 40 41 42 43 44 45 46 47 48 49 50
000 ASUS42 KCHS 282013 RWRCHS REGIONAL WEATHER ROUNDUP NATIONAL WEATHER SERVICE CHARLESTON SC 400 PM EDT SAT MAY 28 2016 NOTE: "FAIR" INDICATES FEW OR NO CLOUDS BELOW 12,000 FEET WITH NO SIGNIFICANT WEATHER AND/OR OBSTRUCTIONS TO VISIBILITY. NOT ALL STATIONS ARE QUALITY CONTROLLED. USE DATA WITH CAUTION... ESPECIALLY DEWPOINT OBSERVATIONS. SCZ027-030-031-034>040-042>050-282100- ...SOUTHEAST SOUTH CAROLINA... CITY SKY/WX TMP DP RH WIND PRES REMARKS N CHARLESTON RAIN 70 67 90 NE9 30.10F FOG WATERFRONT PRK N/A 71 70 96 NE10 30.08S MOUNT PLEASANT HVY RAIN 70 68 94 N5 30.10F VSB 1 JOHNS ISLAND HVY RAIN 70 68 94 N10 30.10S VSB 1 PINOPOLIS N/A 73 70 88 E7 30.05 MONCKS CORNER HVY RAIN 68 64 88 CALM 30.11F SUMMERVILLE RAIN 72 72 100 NE7 30.12S BEAUFORT MCAS RAIN 71 68 90 NE9 30.09S FOG BEAUFORT ARPT RAIN 70 66 88 NE16G24 30.09S HILTON HEAD IS RAIN 73 70 88 N12G21 30.10S WALTERBORO RAIN 72 72 100 NE8 30.12R ALLENDALE FAIR 81 68 65 VRB5 30.08S ...SOUTHERN MIDLANDS AND PEE DEE... CITY SKY/WX TMP DP RH WIND PRES REMARKS GEORGETOWN NOT AVBL KINGSTREE RAIN 73 68 83 E5 30.11F ORANGEBURG CLOUDY 79 66 64 E8 30.10S BARNWELL FAIR 82 72 69 E9 30.10S AIKEN MOCLDY 79 64 61 NE8 30.13F MANNING LGT RAIN 72 70 94 CALM 30.12S COLUMBIA CLOUDY 84 64 50 NE9 30.09F SUMTER CLOUDY 81 66 59 E7 30.08F FLORENCE CLOUDY 82 64 54 SE7 30.11F MYRTLE BEACH LGT RAIN 73 64 73 E17 30.13 FOG N MYRTLE BEACH LGT RAIN 73 67 81 NE7 30.11S $$ GAZ063-065-086>088-099>101-113>116-118-119-134>141-150-282100- ...SOUTHEAST GEORGIA... CITY SKY/WX TMP DP RH WIND PRES REMARKS SAVANNAH ARPT CLOUDY 74 68 81 E15 30.08S HUNTER AAF CLOUDY 74 74 100 NE8 30.05S FORT STEWART CLOUDY 83 67 58 NE8 30.04F STATESBORO CLOUDY 82 71 69 NE5 30.08S SYLVANIA CLOUDY 83 71 67 E6 30.09S CLAXTON FAIR 83 69 62 N7 30.08S ...CSRA...CENTRAL AND FAR SOUTHEAST GEORGIA... CITY SKY/WX TMP DP RH WIND PRES REMARKS THOMSON PTSUNNY 83 69 62 E9 30.14F AUGUSTA-BUSH CLOUDY 83 67 58 N6 30.08F AUGUSTA-DANIEL CLOUDY 83 66 56 NW10 30.10F SWAINSBORO CLOUDY 77 70 78 NE5 30.10S VIDALIA CLOUDY 82 66 57 NE14 30.07S EASTMAN FAIR 86 61 42 NE6 30.08F HAZLEHURST FAIR 89 63 41 NE9 30.04S ALMA PTSUNNY 84 65 52 NE9G17 30.03F WAYCROSS PTSUNNY 87 67 51 E12G21 30.03S HX 90 JESUP FAIR 81 64 57 NE14 30.05S BAXLEY FAIR 86 64 48 N12 30.04F BRUNSWICK MOSUNNY 86 70 58 NE16G22 30.04F HX 90 SAINT SIMONS MOSUNNY 82 70 66 NE20G26 30.03F $$ SCZ027-028-034-036>038-045-046-048>050-GAZ119-141-282100- ...LAKE AND SUPPLEMENTAL COASTAL OBSERVATIONS... STATION/POSITION TIME TEMP WIND PRES WAVE SWELL AIR SEA DIR/SP/G HT/PER HT/PER/DIR (UTC) (F) (DEG/KT/KT) (MB) (FT/S) (FT/S/D) WINYAH BAY 1845 73 50/ 10 1019.0 LAKE MURRAY 1900 80 30/ 3/ 5 1019.3F ACE BASIN NERRS NOT AVBL FORT PULASKI 1900 74 77 30/ 13/ 18 1018.6F SAPELO ISLAND 1900 82 30/ 13 1018.0S $$ ANZ835-935-AMZ111-154-330-350-352-354-370-450-454-472-282100- ...C-MAN AND BUOY OBSERVATIONS... STATION/POSITION TIME TEMP WIND PRES WAVE SWELL AIR SEA DIR/SP/G HT/PER HT/PER/DIR (UTC) (F) (DEG/KT/KT) (MB) (FT/S) (FT/S/D) BUOY 41004 1950 76 76 40/ 19/ 25 1015.7F 8/ 8 5/ 8 BUOY 41008 1950 74 76 40/ 21/ 25 1016.3F 5/10 3/110/10 FOLLY BEACH CMAN 1900 71 10/ 19/ 23 1019.2S CAPERS NEARSHORE 1908 70 76 20/ 19/ 25 1017.3F FRIPP NEARSHORE 1908 73 76 40/ 19/ 27 1017.9R STATION/POSITION TIME TEMP WIND PRES WAVE SWELL AIR SEA DIR/SP/G HT/PER HT/PER/DIR (UTC) (F) (DEG/KT/KT) (MB) (FT/S) (FT/S/D) 5E ST. MARYS GA 1901 78 N/A 6/ 9 2/100/11 FRYING PAN BUOY 1900 76 77 60/ 19/ 23 1018.5F BUOY 41025 1950 78 78 110/ 10/ 12 1020.9F 5/ 8 5/120/ 8 CAPE LOOKOUT NC 1900 77 40/ 8/ 11 1020.6F BUOY 41002 1950 76 76 100/ 16/ 19 1017.9F 4/ 6 2/110/ 7 BUOY 41010 1920 80 79 250/ 12/ 14 1015.0F ST AUGUSTINE FL 2000 76 81 360/ 16/ 17 1017.1F $$

USA.gov is the U.S. government's official web portal to all federal, state and local government web resources and services.